Location: Riverside
(39.1734°N, 77.8561°W)
Time: 10:36:08
(UTC+00:00)

OTV 5 (USA 277) - Pass Details

Date: 22 October 2019
Orbit: 310 x 324 km, 54.5° (Epoch: 17 October)

Event Time Altitude Azimuth Distance (km) Brightness Sun altitude
Exits shadow 10:07:29 20° 195° (SSW) 807 ? -16.3°
Drops below altitude 10° 10:08:51 10° 171° (S) 1,223 ? -16.0°
Sets 10:10:58 0° 157° (SSE) 2,046 ? -15.6°
